Location: Observatoire de Paris
(48.8363°N, 2.3365°E)
Time: 11:32:00
(UTC+01:00)

BUGSAT 1 - Pass Details

Date: 03 October 2021
Orbit: 557 x 602 km, 98.1° (Epoch: 26 October)

Event Time Altitude Azimuth Distance (km) Brightness Sun altitude
Rises 04:28:17 0° 33° (NNE) 2,777 ? -24.1°
Reaches altitude 10° 04:31:40 10° 63° (ENE) 1,864 ? -23.6°
Maximum altitude 04:33:23 12° 89° (E) 1,705 ? -23.4°
Drops below altitude 10° 04:35:05 10° 114° (ESE) 1,849 ? -23.1°
Sets 04:38:25 0° 145° (SE) 2,733 ? -22.6°
